Theta_e
315 313 315 318 322 323 325 324 317 321 321 320 323 322 320 323 325 322 323 323 320 318 327 341 347 343 344 356 359 355 356 360 360 343 339 351 347 347 348 344 345 343 347 349 346 346 345 344 343 341 339 337 337 329 326 330 329 327 326 327 327 328 330 327 327 326 327 328 327 328 331 335 334 333 336 337 337 337 336 336 336 335 335 335 335 336 337 337 338 338 338 338 338 339 339 338 338
314 315 320 323 322 324 328 324 321 323 321 317 319 323 322 325 324 322 325 323 320 327 340 350 352 353 351 353 356 353 352 352 351 347 347 348 346 348 346 345 345 343 347 348 346 346 345 344 342 342 339 337 337 330 326 330 330 328 327 328 326 330 334 331 331 329 328 329 328 328 332 338 334 332 336 337 337 337 337 337 337 335 334 334 335 335 336 337 337 337 337 337 337 338 337 336 336
313 318 324 325 322 324 329 324 324 323 319 316 318 325 322 322 325 324 325 320 322 333 346 352 355 353 352 363 363 352 347 348 348 348 348 347 348 348 346 346 344 343 346 347 347 346 345 343 342 342 339 337 337 330 327 331 332 331 329 329 329 332 334 334 335 333 331 331 329 330 335 339 333 332 337 337 336 337 337 337 337 336 334 334 336 336 336 336 337 337 337 337 337 337 336 335 335
313 319 323 325 323 326 333 330 331 327 320 318 317 321 322 322 327 324 321 321 319 327 344 356 360 351 356 371 361 359 356 350 349 347 348 347 347 347 346 345 344 344 346 347 347 346 345 342 342 342 339 337 336 331 327 332 335 333 330 329 330 334 335 335 338 336 334 333 331 332 337 337 332 334 336 336 336 337 337 337 338 337 336 333 333 335 336 336 336 336 337 337 336 335 334 333 331
312 318 322 325 326 326 331 329 330 326 320 320 316 319 326 322 322 321 320 322 315 322 345 358 364 353 356 360 353 364 361 351 349 346 348 347 347 347 346 345 344 345 347 347 347 347 345 343 343 342 340 338 336 332 329 334 337 334 333 331 331 334 336 336 338 339 335 333 333 334 337 337 332 333 335 336 337 337 337 337 337 336 335 330 324 329 334 335 335 336 336 335 334 332 331 330 329
314 319 321 322 323 322 326 325 325 325 322 322 319 324 328 321 320 319 318 319 321 335 350 357 362 357 358 355 353 357 353 353 351 346 347 346 347 346 345 345 343 345 347 347 347 346 346 345 343 342 342 339 336 334 334 337 338 335 335 333 332 335 336 336 337 339 336 332 334 336 337 336 332 333 336 337 337 336 336 335 335 335 334 329 320 322 329 332 333 333 333 332 331 330 329 328 330
316 320 322 322 321 322 330 330 328 328 325 321 321 325 324 323 320 315 318 317 326 350 356 355 356 360 362 354 355 352 347 351 348 347 347 346 346 344 344 344 343 345 346 346 347 346 346 345 343 342 342 342 339 336 337 338 339 337 335 335 335 336 336 337 337 338 336 333 335 337 337 337 333 333 336 336 337 336 336 335 336 336 334 330 321 318 325 329 331 331 331 330 329 328 328 329 331
318 321 323 326 325 323 327 328 327 328 326 322 321 322 323 323 320 316 319 313 323 351 355 353 354 366 365 354 360 352 345 348 346 348 346 345 344 343 344 343 343 346 346 346 346 346 346 345 343 342 341 342 340 339 339 339 340 338 336 337 337 336 337 338 337 337 336 333 335 338 337 337 334 332 334 335 337 336 336 337 337 335 333 331 322 315 321 328 330 330 330 329 328 328 329 330 331
318 318 320 325 325 322 323 322 321 323 323 322 320 321 324 321 322 317 316 324 334 351 354 353 355 364 363 355 360 350 344 347 346 347 344 344 342 341 342 340 341 344 346 346 346 346 346 346 343 341 341 342 341 339 339 339 339 338 336 337 337 335 337 338 337 337 336 333 333 337 337 336 334 333 335 336 336 337 337 338 337 335 332 331 324 316 318 326 329 329 329 328 328 328 331 332 332
321 318 320 325 324 322 322 322 320 321 320 321 320 319 322 317 321 316 319 340 347 354 355 353 357 360 359 355 356 350 345 345 345 345 343 342 339 340 340 339 339 342 346 345 346 346 346 345 343 341 341 341 341 339 338 339 339 338 335 335 335 332 334 336 337 337 336 334 332 336 337 335 334 335 337 337 337 338 338 338 336 334 332 330 327 319 316 324 329 328 328 327 329 331 332 333 332
325 319 323 328 325 323 323 325 324 325 321 319 318 317 319 315 317 314 323 343 347 357 358 356 360 356 355 354 353 348 344 344 345 344 341 340 340 340 341 341 342 343 345 345 345 346 346 345 343 343 341 341 339 338 337 338 339 338 334 333 333 331 332 334 335 336 335 335 332 334 335 335 336 337 338 338 338 338 338 337 334 333 331 330 328 321 316 321 328 327 327 328 330 332 333 334 332
328 321 325 331 326 326 325 325 324 324 321 317 317 317 318 315 317 317 330 350 354 359 357 358 360 353 356 356 352 347 343 344 343 342 341 341 341 341 340 342 343 344 344 345 346 345 345 345 344 344 342 340 339 337 336 337 337 335 333 333 332 331 332 333 333 334 335 335 333 333 334 335 337 338 338 339 339 338 337 336 333 332 331 330 328 322 317 321 326 326 328 330 331 332 333 333 332
328 324 326 327 325 326 322 321 321 322 322 320 318 317 317 317 318 320 336 352 353 356 353 355 353 351 357 356 353 348 345 344 342 342 342 342 342 342 341 341 342 344 344 344 345 344 345 345 345 344 342 341 339 338 337 336 334 333 334 333 332 331 332 333 332 333 334 335 334 333 334 337 338 338 338 339 340 338 337 335 332 332 330 329 327 322 318 321 325 327 330 331 331 332 333 332 333
325 325 327 324 321 322 319 318 319 318 320 321 319 319 319 318 317 325 350 357 350 353 352 349 348 354 359 354 354 350 346 344 342 342 342 343 343 342 342 341 342 343 344 343 344 344 344 345 345 345 343 341 341 339 340 338 335 334 335 333 331 331 333 333 332 332 332 333 333 333 336 338 338 339 338 339 339 337 336 334 333 331 330 330 327 322 321 323 327 329 331 330 331 333 332 331 332
321 323 326 324 319 319 318 319 317 314 316 319 318 318 318 318 317 327 352 363 354 349 348 348 346 353 359 356 356 350 346 344 342 343 342 344 344 344 344 343 343 343 344 343 344 344 344 345 345 345 343 341 341 341 342 340 336 336 336 333 330 331 334 335 334 333 332 332 333 334 336 337 337 339 339 339 339 336 335 334 333 331 330 330 327 323 324 327 329 331 331 330 331 333 332 331 330
320 320 321 320 318 317 316 317 315 314 317 320 318 316 318 316 321 332 341 351 352 346 348 351 346 350 355 355 354 348 345 343 342 343 343 345 345 345 344 343 343 342 344 344 344 344 344 345 345 345 343 341 342 342 343 340 337 337 337 334 329 331 335 337 336 335 334 334 334 335 336 336 336 338 339 339 338 336 335 334 333 331 330 330 327 324 326 330 330 331 330 330 332 332 332 331 330
316 318 320 318 318 316 317 318 314 314 317 320 318 317 319 314 324 342 344 348 352 351 354 352 348 352 355 352 350 347 344 342 342 343 343 344 344 344 344 343 342 343 344 343 344 344 344 345 345 344 343 342 342 342 342 340 337 337 338 336 331 333 336 337 337 336 336 336 336 336 337 337 336 336 337 339 338 336 334 334 333 332 330 330 329 324 327 331 330 330 330 330 331 331 332 332 331
316 320 320 318 317 316 319 319 315 314 315 317 317 317 318 314 325 343 349 353 354 358 359 353 353 353 351 350 348 346 343 342 343 343 342 342 343 344 344 343 342 343 344 343 343 344 344 344 344 344 343 343 342 341 340 338 337 337 340 338 334 335 337 337 337 337 337 337 337 336 337 338 337 336 335 337 338 335 333 333 332 332 330 330 330 325 324 330 331 330 330 330 331 332 333 333 332
319 321 319 319 317 316 318 317 315 314 314 316 315 316 315 314 320 331 351 357 353 364 362 354 356 353 349 348 346 345 343 343 343 342 341 341 341 342 342 343 342 343 343 342 342 343 344 343 343 343 343 343 341 341 340 338 338 338 341 339 335 335 337 337 337 338 337 338 338 337 337 337 337 336 334 336 336 335 334 333 332 332 331 330 330 327 322 325 330 328 328 330 331 333 334 334 333
319 320 318 319 316 315 316 314 315 314 314 315 315 316 315 315 313 324 354 356 353 366 365 360 359 353 351 348 345 344 343 343 343 342 341 340 341 341 341 341 341 342 341 341 341 342 342 342 343 342 342 342 342 341 340 340 340 340 341 339 336 335 337 338 338 338 337 337 338 337 337 336 337 336 335 335 336 336 335 333 332 332 332 330 330 329 323 322 326 327 328 330 331 333 334 333 333
316 318 319 319 315 315 317 315 315 316 315 314 316 316 316 315 315 334 355 349 356 364 359 363 360 352 351 349 346 344 343 343 342 342 341 341 340 338 337 337 339 341 341 341 342 341 342 342 342 342 342 342 341 341 341 341 341 341 340 338 336 335 337 338 338 338 338 337 337 337 337 335 335 335 335 336 335 335 335 333 332 332 332 331 330 329 326 323 324 327 329 331 332 334 334 333 332
315 316 317 317 314 315 316 315 315 317 315 315 316 315 316 314 319 346 358 350 366 368 354 355 353 350 350 349 348 345 344 344 342 342 342 340 337 336 336 336 338 340 341 341 341 341 341 341 341 341 341 342 341 340 340 341 340 340 339 338 336 336 337 338 339 338 338 338 337 336 335 334 333 333 334 333 333 333 334 333 332 332 332 332 331 329 327 326 326 328 330 331 333 334 334 333 331
316 317 315 316 315 315 315 314 316 318 316 315 317 314 316 316 316 335 344 343 352 353 352 352 349 349 348 348 348 347 346 344 341 340 340 339 336 336 336 337 338 339 340 341 341 342 342 342 341 341 341 341 341 339 339 340 340 339 338 337 336 337 338 339 339 338 338 338 337 335 334 332 332 332 332 331 331 331 331 332 333 332 332 331 331 330 328 327 328 329 329 331 334 334 334 333 331
315 316 316 314 314 314 314 314 316 317 316 316 317 314 315 318 314 319 324 325 331 342 351 351 349 348 348 349 349 347 345 341 338 337 338 337 336 335 335 337 338 339 339 340 341 341 342 342 341 340 340 341 340 339 338 339 339 339 337 337 338 338 338 339 339 339 339 338 336 335 333 332 331 331 332 331 331 329 329 331 333 331 332 331 331 331 329 327 328 329 329 332 334 334 334 334 332
313 314 315 313 313 314 313 314 314 314 315 315 315 314 316 318 314 315 314 320 337 349 351 348 349 349 349 349 348 347 343 339 336 336 336 336 336 335 334 336 338 338 339 339 340 340 340 340 339 339 339 340 340 340 339 339 339 338 337 337 339 338 337 339 339 339 339 338 336 335 333 331 330 331 331 332 332 330 329 330 332 332 331 332 331 331 330 329 328 327 328 331 333 334 334 334 333
314 313 314 313 313 313 312 313 313 314 314 313 314 315 318 317 313 315 314 327 347 351 348 348 350 350 350 349 348 346 343 339 336 337 336 335 336 336 334 335 337 339 339 339 339 337 338 337 337 337 338 339 340 340 339 339 339 338 337 338 338 337 338 339 339 340 339 337 336 334 334 332 330 331 331 332 333 333 331 329 330 331 331 331 331 331 331 330 329 327 328 330 332 333 334 334 333
314 312 313 312 312 312 311 313 314 313 313 315 315 315 318 314 313 315 314 331 351 351 349 350 349 350 350 349 347 345 342 339 337 336 336 335 335 335 334 335 337 338 339 339 337 333 335 338 337 334 334 337 338 340 339 339 339 338 339 338 336 337 338 339 339 339 338 337 336 334 334 333 331 332 332 333 334 334 332 329 328 329 329 330 330 330 331 331 331 329 328 329 331 332 333 334 333
313 312 313 313 313 312 312 313 314 314 314 316 316 314 318 312 314 317 313 333 353 352 351 349 348 351 349 349 347 345 342 338 336 336 335 335 335 335 335 336 337 338 339 339 336 333 335 335 333 330 330 333 335 338 338 337 339 338 338 337 335 336 337 338 338 338 336 336 335 334 335 334 333 334 333 334 334 332 329 325 325 327 328 329 329 330 330 330 331 331 330 330 332 332 333 333 332
313 313 314 315 316 314 314 314 315 315 315 316 315 313 317 314 317 316 315 337 353 351 352 349 349 350 348 349 347 345 341 337 336 336 335 335 336 336 335 336 337 337 338 339 338 337 337 333 329 329 329 329 332 335 334 334 337 338 337 336 335 336 337 338 337 336 335 334 334 335 336 335 334 334 334 334 332 330 328 325 324 325 326 328 329 329 330 330 330 331 331 332 332 333 334 333 331
314 313 312 314 316 316 315 313 315 316 315 317 315 313 317 318 317 313 318 341 353 351 352 349 350 349 348 349 346 346 341 337 337 336 336 336 336 337 336 337 337 337 338 338 338 338 338 334 329 330 329 330 332 332 332 332 334 335 336 336 335 336 337 338 337 335 334 334 334 336 336 335 334 334 334 333 331 330 331 330 328 327 327 328 328 328 329 330 331 331 331 332 332 333 333 332 331
314 312 313 314 312 315 316 314 315 314 313 317 315 313 315 316 316 311 318 342 353 352 353 349 351 350 348 349 346 347 342 337 337 336 337 336 336 337 336 337 337 337 338 338 338 338 339 337 333 332 332 334 333 332 334 334 334 333 333 335 337 337 338 338 336 335 335 335 336 336 336 335 335 334 334 333 332 332 333 332 332 331 330 329 329 329 329 330 330 331 331 332 332 333 333 332 331
318 311 318 321 311 313 317 315 316 313 312 315 314 314 314 315 316 309 314 339 351 351 351 348 350 350 349 349 347 347 343 337 336 336 336 336 335 337 337 337 336 337 338 338 339 339 339 339 337 334 334 337 336 335 337 336 336 334 330 333 337 338 337 337 336 335 336 337 337 336 335 335 335 335 334 334 333 333 334 334 334 333 332 332 331 331 331 331 331 331 332 332 333 333 332 331 330
325 316 318 320 312 312 315 313 314 314 314 313 313 314 315 317 318 310 312 336 350 349 350 348 348 350 349 349 348 347 344 340 337 335 335 336 335 336 337 338 337 337 338 338 339 339 339 339 339 336 335 337 336 337 338 337 336 334 331 333 338 338 337 337 336 335 336 336 337 337 335 335 336 335 334 334 334 334 334 334 334 333 333 332 332 332 332 332 332 332 333 333 333 333 331 330 330
327 323 318 318 314 312 313 313 314 312 313 314 314 314 314 316 318 313 311 327 347 351 349 348 346 348 349 348 348 347 344 342 339 335 334 335 336 336 337 338 337 337 338 339 339 339 340 339 339 337 336 336 336 337 337 337 336 335 332 335 338 338 337 337 336 336 336 336 337 337 335 335 336 335 334 334 333 333 333 334 333 332 333 332 332 332 332 332 332 332 333 333 333 332 330 330 329
323 321 318 318 316 313 312 314 314 313 313 314 314 313 314 315 313 315 314 320 339 348 345 345 346 347 349 348 349 347 344 343 338 334 334 335 336 336 336 336 337 337 337 338 338 338 338 338 337 337 336 336 336 337 337 337 337 336 335 336 337 337 337 337 336 336 337 337 337 337 336 335 335 335 334 334 333 334 333 333 333 332 332 331 332 333 333 332 332 332 332 331 331 330 330 330 329
319 317 315 316 314 313 313 313 314 314 312 313 315 313 314 314 312 318 323 323 332 341 341 343 344 345 346 347 348 346 344 343 337 333 334 334 335 336 335 336 336 336 337 337 338 338 337 337 337 338 338 336 336 337 337 337 337 337 336 336 336 336 336 336 336 336 336 337 337 336 336 335 335 334 334 334 333 333 334 333 332 332 332 331 332 333 333 333 332 332 331 331 331 330 330 330 329
314 313 313 313 311 312 313 313 315 313 312 314 314 312 313 314 315 321 324 325 329 335 341 345 342 341 344 346 347 345 344 342 335 333 334 333 335 335 334 335 335 335 335 335 336 336 336 337 338 337 337 336 335 336 336 336 336 336 336 335 335 335 335 335 335 335 336 336 337 337 337 335 335 334 334 333 333 333 334 333 332 332 331 331 332 333 333 333 333 332 331 330 330 330 329 329 329
311 311 312 312 311 312 313 313 315 313 313 315 313 313 313 312 316 322 322 319 321 324 332 339 340 340 341 343 345 343 342 339 334 333 333 333 335 335 334 334 334 334 334 334 334 335 335 336 337 337 335 335 335 335 336 336 335 335 334 334 334 334 335 335 335 336 336 337 337 336 335 335 334 334 334 333 333 333 333 332 332 332 332 332 333 334 334 334 333 332 331 330 330 330 329 329 329
313 313 312 314 313 314 316 318 318 314 313 316 315 310 313 317 319 321 320 319 321 323 325 329 334 338 338 340 344 342 341 338 335 334 333 332 334 335 334 333 333 333 333 333 333 333 333 334 336 336 335 334 335 335 336 336 336 335 334 334 334 334 335 335 336 336 336 337 337 335 334 334 334 334 334 333 333 333 333 332 332 333 333 334 334 334 334 334 333 332 331 330 330 330 330 329 329
317 316 313 315 316 316 318 323 321 315 314 317 317 317 326 332 324 321 322 323 327 329 329 329 331 335 335 339 343 342 341 338 335 334 333 332 334 335 335 334 333 333 333 333 333 332 332 333 335 335 335 335 335 335 336 336 336 335 335 335 334 334 335 336 336 337 337 337 336 334 334 334 333 333 333 333 333 333 333 333 333 333 334 334 334 334 334 333 332 332 331 331 330 330 330 330 330
320 320 316 315 317 317 318 320 320 320 322 321 320 323 329 331 325 324 328 329 330 330 332 333 333 333 334 336 339 339 342 340 336 334 333 332 333 334 334 334 334 333 332 333 332 332 333 333 334 335 335 335 334 335 335 336 335 335 334 334 334 334 334 335 336 336 336 336 335 334 335 334 333 332 333 333 333 333 334 334 334 334 334 334 334 334 334 333 332 332 331 331 331 331 330 330 330
318 320 319 314 316 318 315 319 323 323 322 318 318 319 316 321 326 327 329 330 331 332 332 334 334 333 333 335 334 334 338 338 335 333 333 333 333 334 334 334 334 333 333 333 332 333 333 334 334 335 336 335 334 334 335 335 335 334 333 333 333 333 333 334 334 335 335 335 335 335 335 334 334 334 333 333 332 333 334 334 334 334 334 334 334 334 334 333 332 332 331 331 331 331 330 330 329
315 320 324 316 315 317 315 318 320 319 318 316 319 321 315 321 328 326 327 331 332 333 333 333 333 332 333 335 334 334 335 336 335 335 333 333 333 334 333 334 334 334 334 333 333 334 335 335 335 336 336 335 335 334 334 335 334 334 334 333 333 333 333 333 334 334 334 335 335 334 333 333 334 334 334 333 332 333 334 333 333 332 333 334 334 334 334 333 332 332 332 331 331 331 331 330 330
317 323 326 318 315 317 317 319 317 318 322 321 326 327 318 320 327 325 327 332 333 333 334 334 333 332 331 333 333 333 333 333 335 336 335 334 334 334 334 334 334 335 335 334 336 336 336 336 336 336 336 335 335 335 335 334 334 334 334 333 333 332 332 332 333 333 334 334 334 334 334 333 333 333 334 333 332 334 333 332 332 332 333 334 333 334 334 333 332 332 332 332 332 332 331 331 330
320 323 319 316 316 316 319 320 320 323 321 317 324 326 316 317 327 328 328 333 334 335 335 334 333 332 330 330 330 330 330 330 330 331 333 333 333 332 331 332 333 333 333 333 335 336 335 336 337 336 337 336 335 335 335 334 334 334 334 333 333 333 332 332 332 332 333 333 333 333 333 333 333 333 333 333 333 335 334 332 331 332 332 332 333 334 334 333 332 332 333 332 332 332 332 331 330
318 318 314 318 322 321 323 321 321 323 317 315 323 323 318 321 328 332 333 334 335 335 335 333 332 331 330 329 329 329 328 328 328 327 328 329 328 328 328 330 330 327 327 329 329 331 333 335 336 336 336 337 336 335 335 335 334 334 334 334 333 332 332 332 332 332 332 332 331 332 332 332 332 332 333 333 334 335 334 331 330 332 332 331 333 334 334 333 332 332 332 332 332 332 331 331 330
315 315 314 316 323 329 335 334 327 319 317 325 329 322 322 327 330 334 335 333 333 334 334 332 330 329 329 329 328 327 327 326 326 325 325 326 326 326 327 328 328 325 326 329 329 328 329 331 331 333 334 335 335 335 334 334 335 334 333 332 331 330 330 331 331 331 331 331 331 331 332 331 331 331 332 333 333 334 333 330 330 333 332 330 332 333 333 333 333 333 332 331 332 331 331 331 330
314 319 317 314 320 326 331 334 326 317 320 330 327 321 326 331 330 333 335 332 330 332 333 332 330 329 328 328 327 326 325 324 324 323 322 323 323 324 325 325 327 327 327 328 327 326 327 328 329 330 332 331 331 330 330 331 333 332 331 331 331 331 331 330 329 330 331 331 331 331 330 330 329 330 331 332 332 333 332 329 331 334 332 332 332 332 333 333 333 333 332 331 331 331 331 331 330
316 320 319 317 320 320 321 326 324 321 323 322 318 321 331 332 331 334 335 331 329 329 330 329 328 327 326 326 325 324 322 321 321 320 319 320 320 321 322 323 325 327 327 326 326 325 327 327 328 329 329 329 329 329 328 328 330 331 332 333 333 331 330 329 329 329 330 330 331 331 330 329 330 329 331 332 332 333 332 331 331 332 333 332 332 332 333 333 333 333 333 332 332 332 332 331 330
315 318 320 319 321 319 318 322 321 320 320 316 315 323 332 331 331 333 333 330 329 328 327 327 326 325 324 323 322 322 320 319 318 317 317 317 318 319 319 321 322 324 326 327 327 326 327 327 327 328 327 327 328 329 329 329 330 331 332 333 333 330 329 329 329 329 330 330 330 331 330 329 330 330 331 333 333 333 333 332 331 331 332 332 332 333 334 333 333 333 333 333 333 333 332 331 331
314 317 318 318 325 324 320 323 323 319 320 320 321 324 329 332 331 331 331 328 328 327 325 324 323 322 322 321 320 320 319 318 316 316 316 316 316 316 317 318 319 319 321 323 325 326 326 326 327 328 327 327 327 328 329 328 329 330 331 331 331 330 329 329 329 330 330 330 330 330 330 329 329 331 332 332 333 333 333 333 332 332 332 332 333 333 333 334 333 333 333 333 333 333 332 332 331
313 314 315 314 322 326 323 325 326 327 326 324 326 327 326 329 329 327 329 328 326 326 324 323 322 320 320 319 318 318 318 317 316 315 314 314 314 314 314 315 316 316 317 318 320 322 325 327 327 327 327 327 328 329 329 329 329 330 330 330 329 329 329 330 331 331 331 331 330 329 330 329 328 330 332 331 332 332 333 333 333 332 332 333 333 333 333 333 334 333 333 333 333 332 331 331 331
316 313 315 316 316 321 323 318 319 327 325 317 322 331 329 328 329 326 327 328 326 325 323 321 320 319 318 317 317 316 316 315 315 314 313 312 312 312 312 313 313 314 314 314 316 318 322 326 327 328 328 328 328 329 329 329 329 330 330 330 330 328 329 331 331 332 331 330 330 329 329 329 329 330 331 331 332 332 332 333 333 333 333 333 333 333 333 333 333 333 333 333 332 331 331 330 330
320 314 315 315 311 318 325 322 322 325 321 316 324 334 330 329 331 328 328 328 326 324 322 320 319 317 317 316 315 315 314 313 312 312 312 311 311 311 311 311 311 312 312 313 314 315 319 322 325 326 327 327 328 329 329 329 329 330 331 331 330 328 329 331 331 331 331 331 330 329 330 329 330 331 332 332 332 331 331 331 332 333 333 332 333 333 332 332 332 332 332 332 331 330 330 329 329
318 316 316 315 315 320 320 320 323 320 318 322 325 329 329 330 331 330 330 329 326 323 320 318 317 316 316 315 314 313 312 312 311 310 310 310 310 310 310 310 310 310 311 311 312 314 316 318 320 322 324 327 328 328 329 329 329 329 330 330 329 329 330 331 331 331 331 331 331 330 331 330 331 332 332 332 332 331 331 331 332 332 332 332 333 333 332 331 331 331 332 331 330 330 330 330 330
315 321 324 322 325 325 318 318 320 318 321 327 327 329 330 329 329 330 329 327 324 321 319 318 316 315 314 313 313 312 311 311 310 309 309 309 309 309 309 309 309 309 309 310 311 312 313 314 317 318 321 324 326 327 327 328 329 329 328 328 328 329 330 331 331 331 330 331 331 331 331 331 331 333 332 331 331 331 331 331 332 332 332 333 333 333 332 331 331 331 331 331 330 330 330 330 330
318 329 329 323 322 320 317 319 318 319 328 332 331 331 330 328 328 329 327 324 322 319 317 316 315 314 313 312 311 311 310 309 309 308 308 308 308 308 308 308 308 308 309 309 309 310 310 311 313 315 317 320 322 324 326 327 328 328 328 328 329 329 330 331 331 331 331 331 331 331 332 332 332 332 331 331 331 331 330 331 331 332 333 333 333 332 331 330 331 331 331 330 330 330 330 330 330
325 333 327 321 320 318 320 320 318 324 332 330 330 332 328 326 325 323 322 321 320 317 316 314 313 313 312 311 310 309 309 308 307 307 307 307 307 307 307 307 307 307 307 307 308 308 308 309 310 311 314 317 318 320 324 326 327 329 329 329 329 329 330 331 331 331 331 331 330 331 331 332 332 331 330 329 330 331 330 330 330 332 333 332 332 331 331 330 331 332 331 330 329 330 330 330 330
Wind_Speed
2 2 2 1 1 1 2 3 1 2 2 0 3 1 4 5 3 4 6 6 1 1 2 4 4 4 4 5 8 7 3 3 3 4 3 3 7 22 25 16 22 30 26 25 25 22 21 21 22 22 22 20 19 19 21 22 23 24 24 24 25 24 24 25 25 24 24 25 25 26 26 26 26 27 27 26 26 26 24 23 23 22 20 20 20 19 19 18 18 17 17 17 17 17 17 18 18
4 3 1 1 2 2 0 3 3 2 3 2 4 4 4 3 2 5 8 7 2 3 2 6 8 8 8 8 7 4 3 3 1 3 1 5 12 19 23 18 25 31 26 26 26 24 22 22 23 23 22 21 19 19 21 23 23 23 24 24 24 23 23 24 24 23 24 24 25 26 27 26 25 26 27 27 27 25 24 23 22 20 19 20 20 19 19 18 18 17 16 15 15 15 15 16 17
4 3 1 1 2 3 1 3 2 1 3 3 5 4 3 2 5 9 10 8 6 7 4 4 6 5 5 5 4 3 0 2 3 3 3 10 12 16 21 20 28 31 26 27 26 24 24 23 24 24 22 22 20 20 22 22 22 22 23 23 22 22 22 24 23 23 23 23 25 26 27 25 24 26 27 27 27 25 24 23 21 20 18 19 19 20 19 18 18 17 16 15 14 13 14 15 16
3 2 0 2 2 3 3 3 2 4 2 4 2 4 3 4 8 8 9 7 5 5 2 3 4 2 4 6 2 3 1 1 3 3 3 8 11 18 22 23 29 28 25 27 26 25 24 24 26 25 23 22 21 20 21 22 21 21 22 22 22 21 22 23 22 22 22 23 25 26 26 24 24 25 26 26 26 25 23 22 21 19 18 18 18 20 19 19 18 17 16 14 14 14 15 15 13
2 2 0 2 2 1 2 2 2 4 4 4 1 5 5 6 7 7 9 5 2 1 1 4 2 2 3 4 1 2 2 2 4 5 6 7 14 22 24 26 29 26 25 25 25 25 24 24 26 25 23 22 21 20 20 21 20 20 21 21 21 21 21 21 20 21 22 23 25 26 24 23 24 25 25 26 25 25 24 22 20 19 18 17 18 20 19 19 18 17 16 15 15 15 15 14 12
2 3 1 3 2 1 2 2 2 2 5 5 2 6 6 6 6 6 10 5 3 2 3 3 3 2 3 3 2 2 2 3 5 7 8 12 19 25 25 27 27 24 24 24 24 25 24 24 25 25 23 22 21 20 20 20 20 20 20 21 21 20 20 19 19 20 22 24 24 23 22 22 24 24 25 24 23 24 23 21 20 19 16 16 18 19 19 20 20 19 17 17 16 15 14 13 12
3 2 2 3 1 1 4 2 4 4 5 6 4 6 7 8 4 4 9 3 4 4 4 2 6 7 2 1 1 3 3 4 7 9 13 20 24 25 26 26 25 23 23 24 24 24 24 24 25 24 22 21 20 20 19 19 20 19 20 21 20 19 19 19 19 19 21 24 24 21 20 22 23 24 25 23 22 22 21 21 20 18 16 15 17 19 19 20 20 19 18 17 16 14 13 13 12
3 1 1 3 1 2 4 2 3 4 4 4 5 7 10 9 4 4 8 2 1 1 2 2 4 6 1 1 1 5 6 6 9 14 20 24 26 26 26 26 25 23 23 24 23 23 23 23 24 23 22 20 19 19 18 19 19 18 20 19 19 19 20 19 19 19 21 24 23 20 20 22 23 23 24 22 21 20 20 20 18 17 15 14 15 18 20 21 21 19 18 16 15 14 13 13 13
2 1 1 3 2 1 1 1 4 4 5 6 6 9 11 10 7 4 6 3 2 3 2 2 0 3 1 3 2 4 7 12 17 20 24 26 27 26 25 27 26 23 23 23 22 23 22 22 22 22 22 20 19 19 18 18 17 18 19 18 18 18 20 20 18 19 21 23 23 22 21 21 22 23 22 20 19 19 19 19 18 16 15 14 14 17 20 21 21 19 17 15 14 14 13 13 14
3 2 2 2 2 1 3 2 3 3 5 6 7 11 11 10 6 4 4 1 2 3 2 2 4 4 5 4 2 3 5 18 24 23 24 26 26 25 25 26 26 25 23 22 22 22 21 20 21 22 21 20 20 19 18 17 17 17 18 17 16 18 20 20 19 19 20 22 23 23 22 22 22 22 20 19 18 17 18 17 17 16 15 14 14 15 19 22 21 19 16 15 15 14 13 14 15
2 2 2 3 3 1 3 3 4 4 5 5 7 12 11 8 4 1 3 3 1 2 3 3 5 5 6 4 1 2 11 20 25 24 24 25 24 24 25 24 23 24 23 22 23 22 20 20 20 20 20 21 21 20 19 17 17 17 17 16 16 18 19 19 19 19 20 20 22 23 22 22 22 20 19 19 17 16 16 16 16 16 15 15 14 14 19 23 22 19 16 16 15 13 13 14 15
2 1 4 4 2 3 3 3 5 6 7 4 6 8 5 7 5 4 5 4 1 2 5 1 5 5 5 3 1 6 12 16 23 27 25 24 23 23 24 23 22 22 23 23 22 21 20 19 19 19 20 20 20 20 18 17 17 16 17 16 16 18 18 19 19 19 20 20 20 22 22 22 21 19 19 18 17 15 15 15 16 16 15 15 14 15 19 24 23 19 18 17 15 13 13 14 15
3 2 5 2 2 3 3 3 5 5 6 4 5 5 1 3 3 6 6 4 4 3 4 3 8 5 4 2 2 6 9 13 23 27 24 22 22 22 22 22 21 21 22 22 21 20 19 19 19 19 19 19 18 18 17 17 17 17 17 16 16 18 18 18 19 19 19 18 19 21 21 20 19 18 18 17 16 14 14 15 15 16 16 15 15 16 20 24 23 20 19 18 16 14 14 15 15
2 2 4 1 1 2 3 2 3 2 4 5 4 4 1 1 1 5 7 6 1 3 2 6 9 5 4 3 3 4 7 17 25 24 23 22 22 22 20 20 20 21 21 21 20 19 19 18 19 19 19 20 18 17 16 16 17 18 17 16 17 18 19 18 18 18 17 18 18 20 20 19 18 17 16 15 14 13 13 14 15 16 16 16 16 18 22 24 23 21 20 18 16 15 15 16 17
4 1 4 2 1 1 2 3 2 2 4 6 3 4 3 3 2 3 5 6 0 1 4 4 3 1 4 7 5 6 10 21 25 22 22 21 21 21 19 19 20 20 20 19 19 18 19 19 19 19 20 21 20 18 17 16 18 19 17 16 17 19 19 19 17 17 17 17 17 18 18 17 16 16 15 15 13 12 13 13 14 15 16 16 16 19 23 24 23 21 20 19 17 15 15 16 16
3 3 4 1 1 1 3 3 1 2 4 6 4 4 3 4 4 2 2 4 4 2 3 1 1 1 5 6 6 12 18 23 24 22 23 21 21 20 18 20 20 21 20 19 19 18 19 20 20 20 21 21 20 20 18 17 18 18 17 17 17 20 20 19 17 17 17 16 16 16 15 15 15 15 15 15 13 12 12 12 13 14 16 16 15 19 23 24 23 21 20 19 18 16 15 14 14
2 4 3 1 2 2 3 3 1 1 5 7 5 3 5 4 4 1 3 5 6 2 3 1 3 2 4 4 11 23 25 25 26 24 23 21 19 19 19 20 19 19 20 19 20 19 19 20 21 21 22 22 21 19 18 18 18 17 16 16 17 19 20 18 17 17 17 16 16 16 15 15 15 14 15 14 13 13 12 11 11 13 15 16 15 18 23 23 22 20 19 19 18 17 14 13 13
2 3 2 2 3 3 4 5 4 1 3 6 5 2 7 3 1 2 4 7 4 3 5 3 5 6 5 10 22 29 28 29 28 25 21 18 16 14 15 18 19 17 18 19 19 19 19 19 21 23 23 22 21 20 19 20 20 18 16 16 17 19 18 17 17 17 17 17 16 16 16 15 15 15 14 14 14 13 12 11 11 12 14 15 14 16 21 23 21 19 18 17 16 14 13 13 13
3 3 2 3 4 4 5 5 5 2 4 7 5 3 3 3 3 3 2 2 3 4 3 4 7 8 9 14 23 26 27 28 24 23 19 15 14 12 11 14 17 17 17 19 19 19 19 20 21 23 23 22 21 20 20 20 20 19 17 16 17 18 18 17 17 17 17 17 16 16 16 15 14 15 14 14 14 13 12 11 11 13 14 15 15 14 18 22 22 19 17 16 14 13 12 12 14
2 3 2 5 5 5 6 6 8 6 5 5 4 5 4 2 3 2 4 3 1 2 2 2 5 6 10 11 17 21 23 21 20 20 17 15 14 13 12 10 12 15 19 21 20 20 19 20 20 21 20 19 18 18 18 19 18 17 16 16 17 18 17 17 17 17 17 16 16 16 16 15 14 13 12 13 12 12 11 11 11 13 14 15 16 14 16 21 22 19 17 15 13 12 12 13 14
2 3 4 5 4 4 9 7 8 7 4 4 2 3 5 1 3 3 6 5 1 4 6 5 8 10 12 11 12 16 17 16 16 16 16 15 14 14 14 9 10 15 19 19 18 18 16 17 17 17 16 16 16 16 17 17 17 17 16 16 17 18 17 17 16 16 17 16 15 16 16 15 14 13 13 13 12 12 12 12 12 14 15 15 17 16 15 19 22 20 17 14 12 11 12 13 13
2 3 4 4 3 4 8 4 6 7 3 4 1 3 1 2 3 5 7 5 4 6 6 7 10 14 15 14 12 12 12 11 11 12 14 15 15 17 17 21 21 18 17 16 16 16 14 14 14 15 14 15 15 16 18 18 18 18 18 18 17 18 18 17 17 16 17 17 16 16 15 14 14 13 13 12 13 14 13 14 14 14 15 15 17 17 16 18 21 20 16 13 12 11 11 12 13
2 5 3 5 5 6 6 2 6 6 3 5 2 0 0 3 3 4 8 6 7 4 3 7 10 14 16 15 13 11 11 10 10 11 15 16 17 18 21 25 22 19 18 16 16 15 14 14 14 14 14 15 15 16 18 19 20 19 18 18 18 18 17 17 18 18 18 17 16 16 16 15 15 14 12 11 13 14 14 15 15 14 14 14 16 17 17 18 19 19 16 13 11 10 10 11 12
4 4 4 6 7 8 8 5 8 4 4 7 2 1 1 1 4 1 4 6 6 1 7 10 10 11 13 12 11 10 11 11 12 15 18 21 22 19 18 15 16 20 20 18 16 16 16 16 16 15 15 16 15 15 16 18 20 19 19 18 17 17 17 17 18 19 19 18 16 17 17 16 15 14 13 12 12 12 13 16 16 15 15 15 15 16 17 18 18 17 15 12 10 9 9 10 10
4 6 5 5 6 9 10 8 9 5 5 6 1 1 5 7 2 2 5 7 1 5 10 11 10 9 10 10 10 10 11 12 13 16 20 24 25 23 23 18 17 20 20 19 18 19 20 21 20 18 17 17 16 15 15 17 18 18 18 17 16 17 17 17 18 19 19 19 18 18 17 16 16 15 14 13 12 11 12 15 17 16 15 16 16 16 16 17 17 16 15 13 10 8 7 8 8
6 7 6 5 7 9 6 6 9 8 5 2 2 4 8 6 1 2 7 4 4 8 11 11 10 10 8 8 9 11 12 13 13 16 19 24 25 24 24 22 20 19 19 21 23 24 25 23 22 20 19 19 18 16 14 14 15 15 16 16 17 18 18 17 18 19 20 20 19 18 16 16 16 15 15 14 13 12 11 14 17 17 16 17 17 15 15 16 17 16 15 14 10 6 5 6 7
6 6 6 7 9 8 4 6 8 6 5 4 6 7 8 4 0 3 6 2 7 9 10 10 10 10 9 8 9 10 11 13 16 17 17 19 22 23 22 23 24 21 20 24 27 29 27 24 23 22 21 20 20 19 17 15 15 16 17 17 18 19 18 18 19 20 21 21 20 18 17 16 16 16 15 14 13 12 12 13 16 17 16 17 17 16 14 14 15 16 15 14 10 7 5 6 6
4 3 4 7 6 6 4 6 6 3 2 6 8 6 6 3 1 5 5 5 7 9 10 9 9 8 8 9 9 8 8 12 18 17 15 16 19 23 24 26 28 25 24 28 29 29 28 27 26 25 24 23 22 22 21 20 20 21 22 21 21 21 20 20 20 21 22 22 20 19 18 17 16 15 15 14 13 12 12 12 14 17 17 18 17 16 15 14 14 14 14 13 11 8 7 7 8
3 1 3 7 6 5 5 4 5 5 2 6 7 3 6 3 5 5 4 6 7 8 10 8 8 8 8 9 8 7 7 11 15 14 15 19 22 25 27 29 31 28 27 28 28 27 27 29 29 28 26 26 25 24 23 23 23 23 22 23 23 22 21 22 23 23 23 22 21 20 19 17 16 16 15 15 14 13 12 11 13 15 17 18 18 16 16 16 14 14 13 13 12 10 8 9 10
2 1 1 4 6 5 7 2 3 4 2 5 5 3 6 7 9 5 3 5 8 6 8 7 7 7 7 7 7 7 7 9 12 13 17 20 23 26 28 30 30 29 28 29 30 27 28 29 29 30 29 29 28 27 27 27 25 23 23 24 23 23 24 25 25 25 24 22 21 21 19 18 17 16 16 16 16 15 14 13 12 14 16 18 18 17 17 16 16 14 13 13 12 11 10 10 11
2 2 1 2 1 4 8 2 3 4 2 1 6 2 7 10 10 3 4 6 10 8 7 7 7 7 7 6 7 7 6 9 11 15 19 21 24 26 29 31 30 28 28 30 31 30 31 31 30 32 32 31 31 30 30 29 26 25 24 24 24 25 26 27 27 26 23 22 22 22 20 19 18 18 17 18 17 16 15 13 13 14 15 17 18 18 18 17 17 15 14 14 14 13 12 12 12
3 1 2 3 2 4 8 4 2 4 2 2 6 2 6 10 10 0 5 7 9 9 8 8 8 8 7 6 7 6 5 8 11 15 20 22 24 26 29 31 30 30 30 31 31 32 33 33 32 34 33 32 32 31 30 28 27 25 25 25 26 27 28 28 28 26 23 22 23 22 21 20 20 20 20 20 19 17 16 14 15 15 15 17 18 18 18 18 17 16 16 16 16 15 14 13 14
4 2 2 3 1 2 5 4 2 4 2 3 2 3 5 6 6 3 4 7 9 9 9 9 9 9 9 7 6 6 5 6 8 12 19 22 24 27 30 32 32 32 32 32 32 33 34 35 35 35 31 29 31 30 28 26 25 24 25 27 28 29 29 29 27 26 25 24 24 23 22 21 22 22 22 22 21 18 17 16 17 18 17 19 19 19 19 19 18 18 18 18 17 17 17 16 16
3 2 1 2 1 1 2 4 4 3 2 2 1 3 7 9 6 3 3 7 9 10 11 10 8 7 7 7 6 7 7 6 6 10 17 22 23 26 29 31 32 32 33 34 34 34 34 35 35 31 26 27 29 29 27 26 25 25 26 28 30 30 30 29 28 27 26 25 25 25 24 23 23 23 23 23 21 19 18 18 19 20 18 19 21 20 20 20 19 19 19 20 18 18 19 19 18
3 0 2 2 3 1 2 3 3 4 2 3 4 4 9 12 10 5 2 5 9 11 11 8 7 8 8 7 8 7 6 6 7 12 19 23 24 25 27 29 30 32 33 34 34 33 32 32 32 29 27 27 27 27 27 26 25 26 27 29 30 30 30 30 28 27 27 26 27 27 26 26 25 25 25 24 22 20 20 19 20 20 17 19 21 20 20 22 21 20 20 19 18 18 19 20 20
6 4 4 1 3 3 4 4 6 2 2 5 7 8 10 11 10 7 6 2 6 9 7 6 5 6 6 6 6 6 7 6 8 16 21 22 23 25 26 28 30 31 33 33 33 31 30 30 31 32 31 28 27 27 27 28 27 26 27 28 28 28 29 29 28 28 28 28 28 28 28 28 27 26 25 24 22 20 20 21 20 19 17 19 22 21 22 22 22 21 20 19 20 18 18 20 21
5 2 2 1 2 4 5 4 5 1 1 6 9 10 10 10 7 6 7 7 3 2 5 7 6 5 5 6 7 6 7 6 8 15 18 18 20 23 24 27 29 29 29 28 29 31 31 32 33 33 32 29 29 30 30 30 29 28 28 29 29 28 28 27 28 29 30 29 28 28 29 28 27 27 26 24 22 21 21 21 21 21 19 21 23 20 20 20 20 20 19 20 21 20 19 19 20
3 1 1 3 1 4 6 4 6 0 4 5 6 7 11 7 4 9 8 9 8 6 2 4 4 4 4 5 4 4 4 3 6 10 13 15 18 21 23 26 28 27 26 26 29 31 30 30 31 30 29 29 31 33 34 33 33 32 32 31 30 29 27 27 29 30 31 30 28 27 27 26 26 27 26 25 22 22 23 22 22 22 20 22 23 19 19 19 19 20 21 21 20 21 21 20 22
3 1 1 3 2 4 6 4 6 1 4 4 3 6 10 3 7 8 9 7 7 9 7 4 3 1 0 0 2 3 3 4 4 6 9 13 17 20 22 23 25 25 23 23 26 27 25 27 28 27 28 31 32 33 34 34 34 34 32 31 29 27 26 27 29 29 29 28 26 26 26 26 25 26 26 24 22 22 24 24 24 23 23 23 23 20 20 20 21 21 22 22 21 20 19 22 23
3 3 2 2 2 1 3 4 6 3 1 2 5 5 6 4 7 6 7 5 8 11 10 10 8 5 2 1 4 6 5 4 5 5 7 11 14 18 20 19 20 21 21 23 26 27 27 28 30 29 30 32 32 32 33 33 31 30 29 28 26 25 24 25 26 27 28 28 26 24 24 26 25 25 25 24 23 22 24 25 25 26 25 24 22 22 22 22 23 23 24 24 24 21 18 21 21
1 4 5 3 2 3 4 4 5 5 5 1 7 4 4 5 7 6 6 6 12 12 12 15 12 9 7 5 3 3 7 7 8 8 8 11 13 17 17 15 16 18 20 23 25 26 28 29 30 29 29 30 30 30 31 30 27 26 24 22 22 22 21 22 24 25 27 28 27 25 25 26 25 25 25 25 24 23 24 25 27 28 26 24 23 23 22 22 24 25 26 26 26 24 21 22 20
3 4 8 7 6 5 4 3 4 5 5 3 6 4 2 4 7 6 7 8 13 12 14 16 14 13 12 10 9 4 1 4 7 8 8 9 11 14 14 15 16 16 19 21 21 22 23 25 27 27 27 30 31 31 32 31 28 25 24 23 24 24 21 24 27 27 28 28 27 27 26 26 26 25 26 25 24 24 24 25 27 27 25 25 24 23 22 23 25 26 27 27 25 25 23 23 22
1 5 9 8 6 5 3 2 4 3 1 2 4 6 3 3 6 6 7 8 12 12 15 16 13 13 12 10 11 9 7 4 3 3 4 6 8 11 14 17 18 17 19 20 19 18 19 22 25 28 29 30 31 30 31 32 30 29 28 27 27 26 25 27 29 28 28 29 28 26 24 24 25 25 25 25 24 24 24 24 25 25 24 25 25 24 23 23 25 26 27 26 25 24 23 24 24
3 7 6 7 7 7 5 5 4 2 2 3 4 4 4 2 4 6 7 7 11 13 14 14 12 13 12 11 11 11 9 8 6 5 2 1 5 7 8 10 12 14 16 19 19 20 22 23 24 24 25 26 27 26 27 29 30 30 29 28 25 26 26 25 26 27 27 27 27 25 24 23 23 23 24 24 24 24 23 23 25 24 24 25 25 25 24 24 26 26 26 26 24 24 22 23 25
7 8 6 7 7 7 6 6 3 1 2 2 7 3 5 2 5 6 7 7 9 11 12 12 12 13 12 12 12 11 10 9 9 8 7 7 7 8 11 9 7 6 6 8 12 16 19 17 17 18 18 20 22 22 23 26 28 28 27 27 25 24 24 21 21 23 24 24 23 22 22 24 23 22 23 23 23 23 22 23 26 25 24 25 25 25 25 24 25 26 27 26 25 25 23 23 24
6 4 4 4 3 4 4 5 4 3 3 4 7 1 5 2 5 6 5 4 5 7 9 10 11 12 12 12 13 12 11 10 10 9 10 13 15 16 17 14 12 17 20 18 14 8 8 7 7 10 12 14 18 20 22 23 24 24 24 24 24 22 19 18 18 20 20 19 19 18 19 22 23 23 23 22 23 23 22 24 25 24 24 25 26 26 25 25 25 25 26 27 27 25 25 24 24
4 6 5 5 5 5 4 3 4 4 0 6 7 1 5 1 3 3 2 2 3 5 7 9 11 12 12 12 12 13 12 11 10 11 12 16 19 21 20 16 15 17 18 15 14 16 15 12 12 8 6 8 11 16 20 21 22 22 22 20 18 19 19 17 15 17 18 17 17 18 20 21 22 23 24 23 24 23 23 24 24 22 23 25 25 25 25 25 24 24 25 27 27 26 26 26 25
5 5 4 4 2 4 4 4 4 4 3 6 4 4 7 3 2 1 4 5 5 6 7 9 11 12 11 11 12 12 12 11 11 11 13 15 18 21 22 21 20 17 14 7 4 12 17 16 15 12 8 8 9 11 14 20 22 20 18 18 20 23 24 21 18 18 19 19 19 19 20 21 21 25 27 26 25 23 23 24 23 22 24 24 24 25 24 23 23 23 25 26 26 26 27 26 26
5 4 5 5 1 2 0 2 0 3 3 3 3 3 6 1 1 3 6 6 7 8 8 9 11 11 11 11 11 11 11 11 11 11 11 12 13 16 19 20 20 17 15 12 8 11 15 14 14 14 12 10 11 14 16 18 20 18 18 24 28 26 24 24 23 23 22 21 23 23 23 23 22 23 26 26 25 23 23 23 22 22 23 23 23 23 23 22 22 23 25 26 26 26 26 26 26
5 5 5 5 3 2 2 3 0 2 2 2 3 2 3 1 1 5 8 7 7 9 9 9 10 11 10 10 11 10 10 10 10 10 10 10 12 16 17 19 21 20 18 14 10 10 12 10 10 13 12 9 10 14 18 17 18 22 26 29 30 26 24 25 25 25 25 24 24 25 25 26 25 24 24 25 25 24 22 20 20 21 21 22 23 23 22 22 22 23 24 25 25 25 25 25 26
4 4 6 5 5 4 3 3 3 3 2 2 2 3 3 3 0 3 8 9 8 9 10 10 10 10 8 9 10 10 9 8 8 8 8 9 13 16 16 17 19 20 20 17 14 12 11 9 10 13 10 6 7 9 11 15 17 23 28 28 28 26 26 26 25 25 25 24 22 23 24 26 25 25 24 23 22 23 22 20 19 20 21 22 21 21 23 23 22 23 24 24 24 24 24 25 25
1 2 6 3 5 5 3 3 5 5 2 2 3 3 2 1 3 4 5 10 10 10 10 10 10 10 8 9 10 10 10 8 8 9 8 10 14 16 15 16 16 18 20 19 19 17 13 11 11 12 9 7 9 8 8 12 16 22 24 25 26 26 26 27 25 24 23 22 21 21 24 26 22 21 22 20 17 19 22 21 20 20 22 22 22 22 23 23 23 24 24 24 24 24 24 25 24
1 2 4 3 4 8 5 2 1 3 4 1 1 3 2 2 2 4 4 10 10 10 11 9 9 9 9 9 9 9 10 10 10 11 10 13 16 19 19 18 18 20 21 21 21 20 16 11 10 12 10 8 8 9 10 11 15 20 24 27 28 27 28 28 26 25 22 20 20 20 23 25 23 22 23 21 17 17 20 21 20 21 22 22 22 23 24 23 23 23 23 23 23 24 25 25 25
5 2 5 2 3 5 4 2 2 4 4 1 2 3 3 2 0 1 4 9 10 10 10 8 8 9 8 8 8 9 9 9 11 11 12 15 19 22 23 22 22 22 22 23 23 22 20 16 13 13 13 12 10 10 13 14 17 22 27 31 32 29 28 29 28 26 24 22 21 21 23 24 24 23 25 22 17 17 19 20 21 21 22 22 22 22 23 24 24 22 22 23 24 25 24 24 24
6 4 3 4 3 1 1 2 2 1 3 1 3 2 1 1 0 2 6 8 9 9 9 8 8 8 7 7 8 9 9 8 10 11 11 14 17 20 22 22 23 23 23 24 25 24 25 23 20 18 16 14 12 12 13 15 20 25 27 27 27 27 28 28 27 25 25 24 24 24 25 26 26 24 24 21 18 18 19 20 21 21 22 23 23 22 22 23 24 23 23 24 25 25 24 24 23
4 3 3 2 3 4 3 2 3 4 3 2 2 2 1 1 1 3 7 8 9 9 8 7 8 7 7 7 7 8 9 8 9 9 10 13 16 19 20 20 22 24 24 24 26 26 26 25 24 23 21 17 15 15 15 15 17 21 23 20 20 24 27 28 27 25 26 26 25 26 27 28 28 26 24 22 19 19 21 20 21 21 22 23 23 22 22 23 24 24 24 24 24 24 24 24 23
2 4 3 3 2 2 3 1 2 4 4 3 3 1 2 2 0 5 8 8 9 9 7 7 7 7 7 7 7 7 8 8 9 9 9 12 16 18 19 20 21 24 25 26 27 27 27 28 27 26 25 23 21 20 18 18 18 19 20 20 20 23 26 28 28 26 26 25 25 26 28 28 27 26 25 23 20 21 22 23 25 24 23 24 23 22 25 26 26 25 24 23 23 23 23 23 22
4 3 2 1 1 3 4 1 1 2 4 4 5 3 2 2 2 6 8 8 9 9 8 7 6 6 6 6 7 7 8 8 9 9 10 12 15 17 18 20 22 24 25 27 27 26 28 30 30 28 28 26 25 24 21 19 18 19 20 19 19 22 25 27 26 27 26 25 25 25 26 27 27 25 25 24 23 23 24 26 28 26 25 25 24 24 27 27 25 24 24 23 23 23 22 22 22
Wind_Direction
77 78 77 107 30 83 48 65 94 329 89 303 273 224 257 233 240 291 293 287 314 358 30 48 39 69 103 118 140 141 102 139 167 149 207 261 157 169 171 174 172 164 159 160 162 159 162 163 163 164 163 163 162 159 155 152 149 146 143 140 137 135 133 132 131 128 126 123 122 120 119 118 116 115 115 114 112 110 109 108 108 108 109 109 109 111 112 109 104 100 98 97 96 94 92 93 94
101 109 81 83 18 68 187 72 101 330 57 310 272 182 254 281 271 248 243 249 185 157 144 90 79 77 89 108 119 101 43 15 118 143 99 128 135 162 173 178 174 166 159 160 161 160 163 165 165 166 164 165 165 161 157 155 152 149 146 143 141 135 131 131 129 127 126 123 123 121 121 120 119 118 117 116 113 111 110 109 109 107 105 108 111 112 113 111 106 104 101 99 97 93 92 96 98
114 141 71 94 36 50 85 45 95 73 92 247 269 223 257 293 235 229 229 230 178 158 151 85 80 76 77 80 51 62 64 334 92 107 105 141 140 162 175 177 173 167 160 160 160 161 164 164 168 168 166 167 167 163 160 157 154 150 147 145 142 135 131 130 127 127 126 124 125 124 123 124 123 121 120 119 115 113 112 111 110 108 105 105 109 112 113 112 110 108 105 101 98 95 97 100 98
134 160 18 100 50 27 65 52 132 121 144 225 260 251 236 217 237 245 243 233 184 165 134 60 55 354 61 86 51 62 155 273 111 131 138 161 162 162 171 170 168 164 158 160 160 162 164 165 169 168 168 168 167 165 161 157 154 150 148 146 140 133 131 130 128 128 125 126 127 127 127 127 126 125 124 120 117 116 114 114 112 111 111 110 112 114 114 114 114 113 109 106 106 107 107 102 91
153 163 139 91 91 31 98 86 119 128 199 199 167 259 236 218 247 274 267 261 250 253 97 98 72 322 68 88 105 116 157 128 133 164 133 149 163 160 165 164 162 159 157 160 161 163 163 164 168 168 168 167 167 165 160 156 152 149 146 143 139 133 132 130 130 129 127 128 129 129 129 129 129 128 125 121 122 122 120 120 118 116 115 113 116 120 121 120 120 118 117 118 119 114 107 95 82
154 137 80 61 99 169 110 102 160 211 229 178 191 265 253 241 246 276 285 309 29 36 43 82 116 111 81 36 56 118 204 146 135 160 142 145 160 161 161 160 158 157 158 161 163 165 163 164 168 168 166 164 166 163 157 154 150 148 143 140 139 135 132 132 132 132 130 130 131 130 130 131 131 130 128 126 126 126 125 123 120 117 114 110 114 124 129 130 130 128 127 125 121 111 101 88 79
164 127 32 56 44 34 102 151 194 236 243 182 200 256 263 263 250 307 299 308 57 35 29 70 119 106 87 326 65 1 339 149 141 157 156 151 157 159 157 158 156 155 158 162 165 166 164 166 168 167 164 162 163 159 156 153 150 148 144 141 140 137 135 135 135 135 133 133 134 131 132 134 133 134 133 130 127 125 124 121 120 117 113 110 113 124 131 135 136 134 131 125 117 106 96 86 85
164 147 24 97 48 16 106 180 220 218 247 225 231 261 271 276 279 315 295 275 97 29 74 138 112 94 314 328 101 344 25 113 143 152 152 148 153 155 157 159 155 154 159 163 165 163 164 167 168 167 163 161 160 157 156 152 151 148 145 144 142 140 139 139 138 139 136 136 138 133 135 137 136 137 134 129 127 126 124 122 121 118 114 111 114 125 133 138 139 137 132 124 114 102 91 89 99
100 77 82 100 115 32 80 254 256 235 261 270 261 265 270 276 282 265 271 313 112 137 124 217 95 103 146 45 74 327 42 112 134 140 145 147 153 156 160 163 159 157 159 163 162 160 165 168 166 166 164 162 160 158 158 154 153 150 148 147 145 144 144 143 143 144 141 139 142 139 139 140 138 137 133 130 129 128 127 125 124 120 116 113 116 125 134 140 142 140 134 123 110 98 93 99 111
35 36 137 89 106 69 310 266 259 255 250 260 259 258 262 270 277 237 230 323 127 134 117 57 59 104 121 81 56 328 90 125 128 131 144 150 156 160 163 166 165 160 158 160 159 160 166 166 164 166 167 164 162 161 160 157 154 154 152 150 148 149 148 148 149 149 146 142 145 144 142 141 140 136 133 132 131 130 130 129 127 123 119 117 117 124 136 143 145 143 134 121 106 98 98 107 119
31 340 103 78 83 161 249 249 267 263 258 278 272 257 250 249 246 215 115 121 295 134 172 75 81 117 103 94 42 105 128 131 131 137 150 155 159 163 164 164 163 158 155 157 157 161 164 164 164 166 169 167 166 165 164 161 159 159 157 154 153 153 151 152 154 154 150 146 147 148 146 142 139 135 133 132 132 134 133 130 127 123 121 118 118 124 136 144 146 143 131 117 105 99 99 109 122
100 297 69 94 141 187 207 229 263 274 283 282 266 263 228 208 185 127 109 138 167 145 217 172 137 147 90 102 116 126 133 134 139 147 155 157 159 163 164 163 158 154 151 154 157 159 161 163 164 166 170 169 169 167 166 167 167 167 162 159 159 156 152 154 156 156 155 151 151 152 149 143 140 140 138 135 134 137 135 130 126 123 121 119 119 125 135 142 145 139 128 115 104 98 97 107 119
131 164 88 129 186 169 200 229 268 299 298 260 238 275 186 183 163 138 124 123 143 172 247 162 145 131 88 138 117 136 147 148 149 152 157 156 159 161 160 159 154 151 149 152 154 155 159 161 163 167 169 168 168 167 168 173 174 171 165 163 162 158 155 155 156 157 156 154 154 154 151 148 146 146 144 140 138 139 136 128 124 122 121 120 121 128 135 140 141 135 125 114 104 97 98 108 117
164 160 115 177 188 150 207 243 283 314 285 266 243 281 346 59 145 146 121 107 168 226 201 132 140 113 105 154 138 171 166 159 157 154 156 154 155 154 150 151 149 147 148 150 151 153 157 162 165 166 167 167 167 167 171 178 176 171 167 165 163 160 156 156 157 156 155 155 157 155 153 152 151 148 148 148 145 143 139 127 123 123 123 122 123 134 139 138 139 133 124 114 104 101 104 112 118
184 134 100 121 352 281 224 222 229 167 261 270 272 316 28 62 101 129 121 121 263 286 107 121 144 89 163 172 178 187 160 156 158 154 151 147 146 143 139 142 144 145 146 148 149 153 159 164 166 166 168 168 169 170 173 178 176 171 168 167 165 162 159 161 161 158 155 156 155 154 155 155 151 148 151 154 149 144 141 129 125 126 126 125 126 138 142 140 139 133 125 115 105 105 109 117 120
174 95 75 89 252 243 221 221 195 152 260 258 282 336 44 6 47 92 264 136 128 87 78 173 275 4 168 182 179 154 146 150 153 150 143 136 134 133 135 138 142 146 146 149 152 156 162 165 167 168 170 172 173 173 173 176 175 173 170 169 168 165 164 167 166 161 158 156 154 154 155 155 153 151 152 154 148 145 144 134 129 130 131 129 129 142 147 144 141 135 126 117 110 108 112 121 125
103 83 66 1 210 210 214 211 168 139 269 271 313 8 100 1 6 69 335 71 117 114 32 331 330 13 146 168 150 142 144 149 150 145 134 129 129 129 134 138 141 146 147 152 157 160 163 165 168 171 173 176 177 175 175 174 175 177 174 172 171 169 169 171 168 163 161 160 159 160 159 157 157 156 155 155 150 146 145 139 136 135 135 135 133 143 151 150 145 140 130 123 118 112 113 122 130
89 102 130 231 203 210 201 198 213 177 271 277 316 27 111 72 356 78 28 32 51 51 20 13 17 29 84 122 136 140 147 151 150 141 131 130 131 127 129 136 141 144 148 155 161 163 164 165 171 174 176 179 178 178 178 174 177 181 177 174 173 172 173 173 169 167 166 165 167 168 167 162 160 159 159 161 156 149 145 141 141 143 142 141 139 143 154 156 151 146 137 131 126 116 112 119 131
145 123 156 224 205 217 213 214 254 249 267 280 302 316 82 114 183 105 78 338 22 53 1 25 52 60 90 118 132 142 151 150 147 138 131 132 129 123 118 131 140 145 154 161 165 167 167 169 174 177 179 181 179 180 179 176 179 180 177 175 176 176 176 175 173 171 170 169 173 175 173 169 165 162 163 165 161 155 150 145 147 151 148 147 147 145 154 160 158 152 143 138 130 118 110 112 128
173 136 185 237 213 240 254 240 260 260 259 274 288 319 7 114 173 101 137 160 60 144 224 72 97 118 122 132 138 146 151 145 142 136 130 127 125 122 108 110 134 154 168 169 167 169 173 174 175 179 180 180 179 179 177 176 179 179 177 177 179 180 181 180 177 175 174 175 177 178 177 173 170 165 166 168 169 169 162 155 155 159 156 152 154 152 152 159 161 155 147 142 131 117 107 106 122
182 170 195 238 197 240 265 249 262 276 276 250 224 12 357 330 101 103 138 129 284 235 223 198 157 149 143 151 150 150 151 141 135 129 122 117 108 95 90 114 160 175 177 171 166 168 172 173 175 178 180 181 180 180 177 177 181 182 180 181 183 183 185 184 181 180 181 182 180 179 180 178 173 167 170 176 180 183 175 169 167 166 164 158 159 160 154 156 160 156 149 144 132 118 107 105 120
186 236 220 237 188 232 266 262 265 274 286 280 314 63 321 317 67 132 137 133 235 229 215 195 156 155 156 157 160 155 145 124 112 114 116 112 104 105 131 167 181 181 176 170 165 166 169 170 176 178 181 187 187 186 182 183 188 189 186 184 185 186 189 189 186 186 187 188 183 182 184 181 178 174 179 183 186 187 184 182 176 171 170 164 163 165 160 155 157 156 152 145 132 125 111 106 120
204 273 252 229 214 228 267 286 260 259 230 254 283 148 215 4 339 171 149 177 234 241 140 148 153 160 158 156 162 151 128 109 101 113 120 117 120 134 163 177 177 175 172 171 166 165 172 173 179 183 187 193 194 194 189 189 194 195 191 186 188 190 192 193 190 190 193 192 185 186 187 186 186 184 188 188 186 188 186 185 179 175 174 169 166 168 166 159 158 159 157 149 136 133 117 106 121
200 263 273 247 226 228 248 246 261 276 225 240 187 86 314 293 288 249 180 233 252 240 105 126 149 154 152 158 154 132 122 120 115 117 119 121 130 153 183 182 170 175 172 167 165 168 177 178 182 188 193 196 197 201 199 198 202 200 193 188 190 194 197 197 196 195 195 196 191 189 190 192 195 192 192 190 189 189 185 185 183 180 179 175 170 169 171 166 163 166 165 156 143 138 121 107 118
212 235 261 262 242 238 244 242 258 268 253 265 119 159 238 209 214 349 263 271 324 110 114 124 139 147 158 157 135 126 132 128 122 120 121 128 141 167 188 184 176 180 170 163 169 177 185 186 186 189 193 195 198 207 212 210 210 206 195 190 192 198 201 200 201 200 197 198 195 193 194 198 201 198 195 193 193 189 183 187 190 188 183 181 176 171 173 172 171 173 172 166 155 147 127 114 121
219 220 248 264 262 256 245 234 243 240 241 258 157 251 261 235 175 302 269 253 114 112 118 130 141 152 159 144 139 150 146 135 134 132 131 140 153 172 182 178 179 182 170 167 176 186 191 189 187 188 191 194 196 205 215 216 216 212 201 195 198 202 202 200 200 200 201 201 197 197 201 204 203 201 197 194 194 192 188 189 194 195 189 186 182 175 172 174 177 178 178 175 168 167 146 129 134
209 208 246 247 257 267 225 219 234 226 225 182 183 241 268 288 94 259 279 182 134 118 124 142 147 155 153 149 165 166 151 145 146 139 137 146 159 171 174 176 182 183 175 175 184 190 190 188 188 191 192 194 196 200 206 208 210 213 209 205 205 203 201 202 200 200 204 203 201 202 204 207 205 200 197 197 197 198 200 197 197 198 192 188 186 180 173 172 177 181 183 183 183 190 175 147 151
237 224 281 266 271 291 223 212 228 191 220 192 178 237 280 342 173 221 238 169 142 131 139 150 149 155 157 163 177 169 150 150 149 143 148 159 168 172 172 179 182 182 181 183 189 190 189 190 194 196 193 196 200 200 202 203 205 208 210 210 209 206 203 204 203 204 205 205 206 204 202 207 206 199 197 198 198 198 200 199 196 196 192 189 186 182 176 173 176 179 184 188 193 200 188 162 162
279 280 312 295 348 338 251 219 214 172 197 190 159 299 306 278 233 248 244 168 138 136 148 151 153 158 165 171 179 168 140 146 155 157 163 167 172 175 176 182 184 182 183 185 188 191 193 195 198 199 196 198 201 201 205 208 207 207 211 215 213 211 206 205 205 205 206 208 208 204 201 205 204 200 198 196 193 191 190 189 189 190 188 186 186 184 181 180 180 179 184 194 201 203 193 172 168
299 42 127 296 6 338 274 267 186 164 202 190 138 306 286 262 253 270 278 157 124 138 159 155 158 162 173 177 179 170 140 148 168 170 173 172 174 177 178 184 186 183 182 184 187 192 198 200 201 202 200 199 198 202 207 209 208 208 214 219 217 214 210 208 207 205 207 210 210 206 203 204 204 203 201 196 191 190 189 187 186 183 181 184 187 187 188 188 187 188 194 204 209 206 198 185 179
328 344 70 339 42 283 293 307 152 142 267 179 106 248 265 279 277 227 200 170 139 165 179 163 167 168 177 182 181 176 146 157 175 174 178 178 175 177 179 184 187 186 182 184 189 193 200 203 204 206 203 198 197 203 206 204 205 205 212 219 218 215 212 210 208 207 208 211 211 211 208 207 206 206 205 199 194 195 196 197 198 191 185 187 187 188 192 195 197 200 206 208 206 202 198 190 186
27 23 306 336 177 262 308 318 156 143 285 21 101 223 271 285 292 109 170 177 154 176 188 174 178 174 176 187 184 174 146 152 167 177 183 182 177 178 181 184 187 188 187 187 189 193 199 204 208 210 205 197 197 203 202 200 201 202 210 219 220 218 214 212 210 209 209 210 213 215 213 211 210 210 208 203 200 203 204 208 213 210 205 199 196 195 196 202 205 205 208 210 202 195 194 189 186
7 106 224 298 305 295 317 328 325 146 163 353 119 216 281 278 291 19 129 168 168 184 199 190 180 179 180 185 182 168 154 148 158 178 186 185 182 181 183 187 189 191 192 191 191 192 198 204 210 211 205 198 198 200 198 199 200 203 211 217 220 219 217 215 212 211 211 212 214 216 215 213 213 215 211 206 205 209 215 217 214 212 215 213 206 204 206 209 208 204 203 204 202 194 188 184 180
318 21 98 263 286 317 305 321 332 69 106 295 241 209 256 262 271 354 94 170 186 193 203 199 178 178 183 179 184 178 165 160 165 181 188 189 187 184 186 189 191 193 194 196 197 197 199 205 209 209 205 202 202 200 198 201 202 205 211 217 218 217 217 217 215 214 214 213 214 216 216 213 215 217 213 209 208 215 224 223 213 204 213 221 211 205 210 209 205 202 197 195 198 194 185 180 176
212 321 65 312 328 312 279 281 288 6 21 265 274 256 254 265 277 310 5 170 194 208 210 199 168 173 186 184 190 184 161 161 173 181 189 191 188 185 186 188 191 192 194 198 201 200 200 203 207 208 208 206 205 201 199 201 201 202 208 215 218 218 219 219 217 217 218 216 214 216 217 216 216 217 214 211 210 219 223 217 210 201 205 217 206 196 200 199 196 196 194 191 191 190 184 176 170
167 158 129 168 315 286 263 251 256 312 339 255 247 248 251 259 271 297 336 8 194 210 204 188 176 181 190 189 192 174 158 172 179 181 189 192 187 183 184 186 190 193 195 199 200 200 199 201 206 210 208 205 205 202 197 198 198 198 205 211 215 218 220 220 219 221 222 221 218 215 215 216 216 214 213 210 212 222 218 209 206 197 195 203 196 186 189 192 192 192 192 190 184 180 175 169 166
145 128 107 233 279 288 279 264 277 279 170 249 232 230 246 251 277 314 335 1 5 221 187 185 186 183 194 198 195 175 166 173 167 175 188 192 187 183 183 187 191 195 197 199 200 201 202 203 206 208 205 202 205 202 196 197 197 197 202 207 212 215 217 218 219 221 223 223 221 217 214 213 212 210 209 210 215 220 213 206 205 197 193 198 195 188 189 191 192 193 189 187 184 175 166 165 167
119 141 307 303 266 270 275 270 299 241 155 255 237 223 248 248 4 358 354 15 9 349 312 229 219 200 207 209 193 163 149 125 135 163 182 189 189 186 186 190 193 196 198 199 202 203 205 205 205 206 204 202 206 205 200 200 203 204 205 207 210 211 213 214 216 220 222 222 222 220 215 211 208 207 208 213 218 217 209 204 202 200 196 197 197 194 194 192 193 194 186 181 181 175 168 168 168
111 129 209 282 259 281 291 292 308 311 157 258 202 192 250 266 64 30 5 19 17 8 15 0 336 358 14 168 113 119 107 91 131 158 176 187 192 190 190 193 194 197 199 200 203 204 205 206 206 208 208 207 208 207 205 205 207 210 210 211 209 207 210 213 215 219 220 220 219 218 215 208 205 207 209 213 215 212 206 201 199 198 195 196 198 195 193 193 193 193 188 182 177 170 167 169 170
114 156 194 241 240 284 290 292 310 334 8 236 150 166 275 343 65 47 3 18 39 25 28 33 30 38 47 134 130 144 140 128 159 166 175 188 194 197 197 195 195 197 200 201 202 203 204 205 206 208 211 212 210 209 209 209 209 210 212 213 210 206 208 211 215 218 218 218 215 212 213 208 206 208 209 209 208 207 205 200 197 196 195 198 199 194 191 193 194 192 189 186 178 168 165 170 173
254 203 201 192 192 221 231 274 316 351 355 46 105 74 329 1 38 23 342 16 41 26 25 32 26 25 24 19 26 173 167 156 168 174 185 190 192 199 201 199 197 200 206 208 207 203 202 204 206 209 212 213 212 211 211 210 208 206 207 208 205 204 205 206 210 213 214 216 213 209 208 207 206 207 207 205 203 207 207 200 197 196 196 199 197 195 195 195 197 195 190 187 183 177 171 173 176
292 238 216 205 203 234 253 316 1 31 1 0 88 87 296 345 28 16 335 18 37 25 29 32 24 26 31 25 12 359 129 145 164 174 190 194 190 194 200 205 203 204 212 218 217 213 208 207 207 210 214 213 212 212 210 208 206 202 199 198 196 196 198 202 206 208 209 210 211 210 207 206 206 206 206 204 202 208 209 202 199 197 196 198 198 198 198 198 199 197 194 191 188 186 180 176 178
271 239 215 202 192 208 209 52 50 72 305 320 78 118 179 330 13 355 333 22 36 29 32 32 28 29 32 34 31 28 25 28 95 136 178 196 197 196 201 207 205 205 211 215 219 221 218 214 210 210 214 214 214 212 210 207 204 201 200 200 200 199 201 206 208 209 210 210 209 210 208 207 209 207 206 204 204 210 210 205 206 204 200 199 199 199 199 201 201 199 198 196 192 190 186 181 181
229 240 197 172 174 189 176 110 103 183 235 330 4 102 121 345 342 332 338 23 31 28 31 31 34 33 32 36 37 39 32 27 37 49 71 206 225 226 234 230 222 219 216 213 213 216 219 219 215 215 217 217 218 216 212 209 206 203 203 203 205 206 209 213 211 209 211 211 210 210 209 210 213 212 207 204 206 212 211 209 213 212 206 203 200 200 201 202 201 199 199 199 197 196 197 193 188
239 233 179 164 173 174 151 116 121 129 81 316 310 47 91 315 298 333 1 34 27 23 26 28 33 33 33 35 34 35 32 30 31 32 36 21 9 2 357 353 341 324 291 246 223 218 223 227 225 225 226 224 224 222 217 215 213 210 206 205 208 212 216 219 215 210 209 209 209 210 210 212 215 215 210 206 209 215 214 213 213 211 208 205 202 202 203 202 200 199 198 198 199 200 204 204 197
237 191 124 92 84 96 104 111 118 62 74 224 265 29 105 269 311 345 7 32 16 17 27 28 31 34 35 33 33 33 28 27 25 26 30 25 23 18 9 8 7 5 4 5 4 332 273 271 269 251 242 236 232 229 225 222 219 215 211 208 210 214 220 224 219 212 209 208 206 206 207 208 213 217 214 212 214 217 218 217 214 210 207 205 203 202 202 202 201 201 201 201 203 204 205 208 206
148 116 90 57 43 39 49 69 97 89 328 246 257 46 101 155 314 347 13 21 10 27 36 33 34 35 35 34 34 34 31 28 23 24 28 26 27 22 13 7 2 358 1 11 12 348 333 339 344 326 285 268 254 241 232 227 225 221 215 212 212 217 225 229 225 218 212 207 203 203 208 210 213 216 215 215 216 217 219 220 216 211 207 204 202 202 202 203 203 204 205 204 205 208 208 208 209
102 112 104 88 17 14 25 359 52 114 243 258 251 66 81 113 256 44 71 56 46 50 46 42 42 38 35 35 36 35 32 27 24 25 22 21 23 20 16 14 9 2 353 340 298 325 337 343 340 327 296 280 276 262 243 235 234 226 215 218 224 223 225 225 225 228 220 207 200 200 207 210 211 214 214 216 218 217 217 220 217 211 208 205 203 204 204 204 207 209 208 206 206 209 210 210 210
89 104 94 98 11 10 16 299 54 166 243 238 188 83 66 69 230 110 94 77 66 64 57 50 47 43 38 35 35 34 30 25 23 24 20 20 19 14 13 14 13 10 358 340 306 311 325 327 325 318 306 292 266 247 235 231 231 225 223 230 232 229 227 224 223 227 224 211 203 201 202 204 207 210 210 211 213 211 214 216 215 211 210 209 206 204 204 205 210 213 211 208 208 209 212 214 214
134 136 119 123 119 100 212 268 177 208 258 226 195 106 93 203 179 117 111 97 84 75 65 57 51 44 40 36 34 33 27 25 24 22 21 19 16 13 11 11 12 10 6 360 342 318 312 311 312 310 312 307 279 253 234 224 220 224 231 233 231 228 228 229 228 227 225 216 209 207 206 204 207 209 209 210 209 206 210 213 213 213 211 209 207 205 207 208 211 214 212 210 211 212 215 217 219
165 157 126 136 151 142 189 209 170 199 228 303 324 72 128 200 217 101 113 99 85 79 67 59 53 42 38 36 31 27 21 20 21 21 24 20 15 13 9 10 10 7 7 8 359 337 312 295 288 294 302 285 277 275 239 218 221 233 236 230 227 227 226 227 227 224 222 220 214 210 208 206 208 211 212 214 211 207 210 210 211 213 209 206 207 208 210 210 209 211 210 212 214 214 216 218 220
237 141 103 134 183 146 132 175 174 177 144 10 353 68 93 143 50 23 85 87 77 77 68 58 50 37 33 31 24 19 11 6 10 11 15 16 14 12 9 9 8 6 7 4 358 348 324 296 282 288 301 277 262 263 227 214 225 233 233 231 231 230 225 223 221 218 218 221 218 213 212 208 208 214 216 213 210 214 218 211 206 211 209 206 207 208 209 208 209 210 210 212 217 217 217 218 219
202 123 143 197 172 124 114 174 163 110 118 26 339 114 113 116 60 348 74 88 81 77 67 59 52 40 37 33 22 14 7 3 6 4 1 3 5 6 5 5 5 5 2 358 356 354 344 323 299 292 296 287 264 241 218 220 228 225 227 234 235 230 225 223 221 220 218 217 216 215 215 209 206 217 222 217 213 220 226 219 210 211 213 212 210 209 210 211 211 213 212 214 219 219 219 219 219
121 174 187 161 82 92 107 135 20 45 122 254 332 112 141 152 124 247 120 97 89 83 72 61 50 41 39 35 24 13 6 5 5 3 0 0 1 1 0 360 0 1 359 358 358 358 358 355 341 326 315 306 291 252 223 220 226 225 226 231 231 227 224 222 224 223 217 211 209 210 213 207 206 218 223 218 210 210 222 229 221 213 213 216 214 210 213 215 213 214 214 215 219 219 219 220 220
124 174 168 112 118 141 105 130 113 99 139 119 353 11 111 116 263 187 128 107 103 93 77 64 48 40 36 27 21 10 5 7 6 4 3 1 360 359 358 355 353 355 357 359 1 3 3 3 360 356 347 332 314 289 254 232 229 230 230 230 228 225 223 223 224 223 217 212 209 207 208 206 206 214 219 214 204 201 212 225 223 214 210 214 213 208 211 214 212 212 212 214 219 218 216 217 218
70 71 21 63 138 156 161 148 140 153 163 134 65 345 295 204 249 139 116 111 109 96 81 70 52 42 38 24 17 9 5 9 6 4 5 2 360 357 356 353 348 351 356 358 3 4 1 1 1 2 2 357 343 321 294 268 251 244 242 241 235 228 225 225 224 221 218 217 215 211 208 207 207 210 213 208 201 201 206 212 216 214 211 214 213 207 209 212 211 211 210 212 216 216 214 216 217
82 55 22 6 29 108 138 86 80 128 146 146 128 184 258 271 267 115 106 99 100 97 90 80 59 46 42 27 20 12 7 9 6 4 4 1 360 355 352 351 349 352 357 0 3 2 360 2 3 1 2 2 357 348 329 305 286 269 260 255 247 238 231 228 225 222 220 219 219 216 211 209 208 209 210 206 200 203 206 209 213 212 211 216 216 208 209 211 210 210 210 212 213 212 212 214 214
126 104 101 146 136 122 117 101 320 81 121 155 144 163 231 340 47 98 90 85 97 101 95 83 65 51 45 31 24 19 12 11 6 3 4 1 360 355 351 351 352 354 358 360 1 359 359 2 2 1 1 360 357 356 351 335 307 280 268 263 257 248 239 233 227 223 221 220 219 216 211 210 210 210 210 208 203 203 207 211 212 209 208 213 213 208 207 208 208 208 208 210 211 210 211 211 211